[[{"header":{"parameterUnit":"m.s-1","parameterCategory":1,"la1":30.2991,"la2":30.254,"lo1":-89.0895,"lo2":-89.0444,"dy":0.0017,"dx":0.0017,"nx":28,"ny":28,"refTime":"2025-11-25T09:00:00:Z","depth":0,"parameterNumber":2,"parameterNumberName":"U-component_of_WINDS"},"data":[0,0,0,0,0,0,0,0,0,0,0,0,0,0,0,0,0,0,0,0,0,0,0,0,0,0,0,0,0,0,0,0,0,0,0,0,0,0,0,0,0,0,0,0,0,0,0,0,0,0,0,0,0,0,0,0,0,0,0.8487,0.8487,0,0.8521,0.8522,0.8522,0.8524,0.8524,0.8524,0.8523,0.8555,0.8556,0.8557,0,0,0,0,0,0,0,0,0,0,0,0,0,0.8419,0.842,0.8487,0.8487,0.8487,0.8521,0.8522,0.8522,0.8525,0.8524,0.8524,0.8523,0.8554,0.8556,0.8557,0,0,0,0,0,0,0,0,0,0,0,0,0,0.845,0.8421,0.8486,0.8493,0.8494,0.8521,0.8522,0.8522,0.8525,0.8524,0.8523,0.8523,0.8554,0.8556,0.8557,0.8579,0,0,0.8563,0.8563,0,0,0,0,0,0,0,0,0.8449,0.8453,0.8491,0.8492,0.8493,0.8518,0.8509,0.8541,0.8525,0.8513,0.8523,0.8523,0.8543,0.8545,0.8553,0.8581,0.8582,0.8563,0.8564,0.8565,0.8565,0,0,0,0,0,0,0,0.8446,0.8451,0.85,0.8492,0.8493,0.8493,0.8497,0.8515,0.853,0.8514,0.8514,0.8518,0.8543,0.8551,0.8554,0.8583,0.8563,0.8564,0.8565,0.8566,0.8631,0.8632,0,0,0,0,0,0,0.8444,0.8449,0.8499,0.8501,0.8469,0.8494,0.8499,0.8511,0.853,0.8533,0.8519,0.8518,0.8548,0.8552,0.8555,0.8582,0.8565,0.8566,0.8567,0.863,0.8631,0.8632,0,0,0,0,0,0,0.8442,0.8448,0.8498,0.8475,0.8482,0.8496,0.851,0.8512,0.852,0.8534,0.8536,0.8525,0.8548,0.8552,0.8574,0.8583,0.8567,0.8569,0.863,0.8631,0.8632,0.8637,0,0,0,0,0,0,0.844,0.8447,0.8457,0.8476,0.8483,0.8517,0.851,0.8513,0.8523,0.8523,0.854,0.8542,0.8548,0.8571,0.8575,0.8586,0.857,0.8629,0.863,0.8631,0.8636,0.8638,0.864,0,0,0,0,0,0.8438,0.8456,0.8457,0.8463,0.8495,0.8517,0.8521,0.8529,0.8524,0.8533,0.8542,0.8542,0.8582,0.8573,0.8578,0.8589,0.8628,0.863,0.8631,0.8635,0.8638,0.864,0,0,0,0,0,0,0.8435,0.8458,0.846,0.8485,0.85,0.8518,0.8529,0.8531,0.8546,0.8545,0.8553,0.8557,0.8578,0.8586,0.8576,0.8612,0.8604,0.8607,0.8606,0.8608,0.861,0.8608,0.8572,0,0,0,0,0,0.8438,0.8456,0.8474,0.8494,0.8502,0.8514,0.8524,0.8529,0.8544,0.855,0.856,0.8574,0.8589,0.8599,0.8614,0.8638,0.8641,0.8648,0.865,0.8651,0.8653,0.8666,0.8669,0.8637,0.8637,0.8637,0,0,0.8443,0.8458,0.8468,0.8494,0.8506,0.8523,0.8519,0.8537,0.855,0.8552,0.8573,0.8582,0.8597,0.862,0.863,0.8627,0.8663,0.8653,0.8654,0.8655,0.8668,0.8671,0.8674,0.8638,0.8638,0.8638,0,0,0.8461,0.8474,0.8493,0.8505,0.8524,0.8533,0.8537,0.8556,0.8562,0.8584,0.8586,0.8601,0.8628,0.8639,0.8648,0.8672,0.8672,0.8676,0.8686,0.8699,0.8701,0.8704,0.8712,0.8715,0.8678,0.8678,0.8678,0,0.8464,0.8491,0.8501,0.852,0.8532,0.8537,0.8555,0.8566,0.8588,0.8595,0.8592,0.8627,0.8637,0.8663,0.8669,0.8676,0.8681,0.8674,0.8701,0.8703,0.8705,0.8713,0.8716,0.8679,0.8679,0.8679,0.8679,0,0.8495,0.8514,0.8526,0.855,0.8563,0.8581,0.8593,0.8605,0.8609,0.8618,0.864,0.8653,0.8671,0.8678,0.8681,0.8704,0.8702,0.8699,0.8692,0.8709,0.8716,0.8719,0.8679,0.8679,0.8679,0.8679,0,0,0.851,0.8541,0.8545,0.8557,0.8579,0.8593,0.8611,0.8631,0.8641,0.8656,0.8672,0.8695,0.8694,0.8704,0.8709,0.872,0.8738,0.8716,0.8717,0.872,0.8764,0.8766,0.8769,0.8739,0.874,0.874,0.8763,0,0.853,0.8566,0.8576,0.8605,0.8623,0.8628,0.8645,0.8659,0.8668,0.8684,0.8693,0.871,0.8706,0.8713,0.8724,0.8734,0.8747,0.8732,0.8752,0.8753,0.8748,0.8773,0.8775,0.8796,0.8766,0.8767,0.8767,0,0.8558,0.8577,0.8608,0.863,0.8637,0.8652,0.8671,0.8686,0.8703,0.8709,0.8721,0.8725,0.8744,0.8737,0.8762,0.8752,0.8761,0.8767,0.8768,0.8769,0.876,0.8775,0.8802,0.8805,0.8772,0.8771,0.8771,0,0.8567,0.8599,0.8623,0.8632,0.8657,0.8667,0.8678,0.8694,0.8706,0.8722,0.873,0.8748,0.8757,0.877,0.8779,0.8773,0.8804,0.8797,0.8808,0.8808,0.8814,0.8813,0.8843,0.8821,0.882,0.882,0.882,0,0.8588,0.8607,0.8627,0.8641,0.8662,0.8674,0.8694,0.8705,0.872,0.8736,0.8741,0.8755,0.8766,0.8781,0.8788,0.8808,0.8813,0.8817,0.8818,0.8816,0.8816,0.8822,0.882,0.8821,0.8821,0.8821,0.8821,0,0.86,0.8614,0.864,0.8663,0.8669,0.8684,0.8703,0.8716,0.8726,0.8746,0.8751,0.8766,0.8785,0.8795,0.8818,0.8822,0.8845,0.8846,0.884,0.884,0.8851,0.885,0.8885,0.889,0.8864,0.8865,0.8865,0,0.8612,0.8628,0.8653,0.8665,0.8676,0.8695,0.8708,0.872,0.8732,0.8754,0.8764,0.8784,0.88,0.8829,0.8841,0.8859,0.886,0.8871,0.8862,0.886,0.886,0.8858,0.886,0.8872,0.8872,0.8872,0.8873,0,0.8633,0.864,0.8659,0.8681,0.8696,0.8713,0.873,0.8739,0.8754,0.8767,0.8788,0.8801,0.8825,0.8844,0.8863,0.8872,0.8874,0.8875,0.8879,0.8877,0.8873,0.8875,0.8843,0.8874,0.8874,0.8874,0.8874,0.8874,0.8645,0.8659,0.868,0.8701,0.8716,0.8732,0.8746,0.8759,0.8777,0.8799,0.8805,0.8826,0.8843,0.8869,0.8879,0.8895,0.8893,0.8898,0.8899,0.89,0.89,0.8871,0.8898,0.8898,0.8898,0.8898,0.8898,0,0.8666,0.868,0.8699,0.8724,0.8741,0.8744,0.8763,0.8776,0.8796,0.8812,0.8829,0.8852,0.8871,0.8885,0.8904,0.8914,0.8916,0.8919,0.8918,0.892,0.8901,0.8896,0.8917,0.8917,0.8917,0.8917,0.8917,0.8917,0.8678,0.8703,0.8712,0.8744,0.8757,0.878,0.8791,0.8805,0.8819,0.8846,0.8862,0.8872,0.8888,0.8908,0.8925,0.8929,0.8935,0.8938,0.8942,0.8923,0.8921,0.8919,0.8915,0.8939,0.8939,0.8959,0.8959,0.896]},{"header":{"parameterUnit":"m.s-1","parameterCategory":1,"la1":30.2991,"la2":30.254,"lo1":-89.0895,"lo2":-89.0444,"dy":0.0017,"dx":0.0017,"nx":28,"ny":28,"refTime":"2025-11-25T09:00:00:Z","depth":0,"parameterNumber":3,"parameterNumberName":"V-component_of_WINDS"},"data":[0,0,0,0,0,0,0,0,0,0,0,0,0,0,0,0,0,0,0,0,0,0,0,0,0,0,0,0,0,0,0,0,0,0,0,0,0,0,0,0,0,0,0,0,0,0,0,0,0,0,0,0,0,0,0,0,0,0,5.122,5.1222,0,5.1416,5.1418,5.142,5.1515,5.1515,5.1515,5.1515,5.1707,5.1712,5.1717,0,0,0,0,0,0,0,0,0,0,0,0,0,5.0921,5.0926,5.1219,5.1222,5.1224,5.1416,5.1418,5.1421,5.1515,5.1515,5.1515,5.1515,5.1705,5.1711,5.1717,0,0,0,0,0,0,0,0,0,0,0,0,0,5.1077,5.0928,5.1219,5.1295,5.1303,5.1415,5.1418,5.1422,5.1515,5.1515,5.1515,5.1515,5.1703,5.1711,5.1718,5.1767,0,0,5.1742,5.1745,0,0,0,0,0,0,0,0,5.1068,5.1088,5.1281,5.129,5.13,5.1441,5.1384,5.1537,5.1515,5.1434,5.1515,5.1515,5.1618,5.1633,5.1669,5.1776,5.1784,5.1743,5.1747,5.175,5.1753,0,0,0,0,0,0,0,5.1057,5.108,5.1297,5.1284,5.1295,5.1317,5.1339,5.1413,5.1524,5.1441,5.1449,5.1471,5.1623,5.1662,5.1674,5.1787,5.1742,5.1749,5.1754,5.1757,5.1949,5.195,0,0,0,0,0,0,5.1035,5.107,5.1291,5.1303,5.1182,5.1323,5.1347,5.1396,5.1523,5.1543,5.1471,5.1475,5.1648,5.1665,5.1682,5.1751,5.175,5.1758,5.1762,5.1949,5.1949,5.195,0,0,0,0,0,0,5.1028,5.1054,5.1283,5.1189,5.122,5.1328,5.1381,5.14,5.1439,5.1546,5.1565,5.1491,5.1649,5.1671,5.1747,5.1759,5.1761,5.1768,5.1948,5.1949,5.1949,5.1887,0,0,0,0,0,0,5.1019,5.1051,5.1071,5.1189,5.1224,5.1346,5.1382,5.1403,5.1453,5.146,5.1569,5.1587,5.1651,5.1735,5.1755,5.177,5.1774,5.1947,5.1948,5.1949,5.1889,5.1886,5.1883,0,0,0,0,0,5.1008,5.1042,5.1071,5.1097,5.1252,5.1346,5.1367,5.1441,5.1453,5.1474,5.1544,5.1584,5.1754,5.1742,5.1765,5.1782,5.1947,5.1948,5.1949,5.189,5.1886,5.1883,0,0,0,0,0,0,5.0918,5.1059,5.1093,5.1166,5.1244,5.1362,5.1391,5.1434,5.1508,5.1511,5.1598,5.1622,5.1691,5.1744,5.1728,5.1839,5.1855,5.186,5.1802,5.1799,5.1797,5.1783,5.1781,0,0,0,0,0,5.0907,5.0974,5.1093,5.1146,5.1184,5.1281,5.1324,5.1376,5.1459,5.1491,5.1566,5.1643,5.1715,5.176,5.1831,5.1897,5.1924,5.1921,5.1918,5.1915,5.1919,5.1963,5.1964,5.1953,5.1953,5.1953,0,0,5.0884,5.097,5.1005,5.113,5.1197,5.1264,5.1307,5.1374,5.1425,5.15,5.1579,5.1637,5.1729,5.1802,5.1837,5.1848,5.1929,5.1917,5.1914,5.1919,5.1964,5.1965,5.1966,5.1954,5.1954,5.1954,0,0,5.0877,5.0948,5.1003,5.107,5.1173,5.1238,5.1251,5.1365,5.1408,5.1489,5.1549,5.1609,5.1729,5.1794,5.1843,5.1868,5.1908,5.1888,5.1874,5.1915,5.1916,5.1917,5.193,5.1932,5.1892,5.1891,5.1891,0,5.0835,5.094,5.1024,5.1091,5.1145,5.1222,5.1279,5.1339,5.1457,5.1493,5.1504,5.1662,5.1728,5.182,5.1827,5.1862,5.1881,5.1876,5.191,5.1912,5.1914,5.1927,5.1931,5.1889,5.1889,5.1889,5.189,0,5.0885,5.0957,5.0989,5.1108,5.1166,5.1226,5.1319,5.1367,5.1415,5.1479,5.1563,5.1647,5.174,5.1765,5.1809,5.1864,5.1869,5.1893,5.1911,5.1911,5.1925,5.193,5.1885,5.1886,5.1886,5.1887,0,0,5.0822,5.0993,5.1003,5.1061,5.1182,5.1239,5.1304,5.1399,5.144,5.152,5.1579,5.1682,5.1709,5.1764,5.1817,5.1853,5.1873,5.1875,5.1878,5.1874,5.1943,5.1925,5.1929,5.1901,5.1902,5.1903,5.1936,0,5.0834,5.0959,5.1039,5.1131,5.1201,5.1278,5.1336,5.1416,5.1479,5.1546,5.1614,5.1688,5.1715,5.175,5.179,5.1862,5.1888,5.186,5.1956,5.1958,5.1932,5.1935,5.1915,5.1942,5.1941,5.1942,5.1943,0,5.0863,5.0948,5.1049,5.1169,5.1201,5.1252,5.1349,5.1412,5.1506,5.1549,5.1615,5.1671,5.1744,5.1756,5.1859,5.1838,5.1882,5.1924,5.1927,5.194,5.1951,5.195,5.1952,5.1957,5.1951,5.1951,5.195,0,5.0812,5.095,5.1031,5.1077,5.1218,5.1252,5.1312,5.1407,5.1461,5.1544,5.1581,5.1669,5.1718,5.1786,5.1865,5.1866,5.1961,5.1979,5.2,5.1998,5.2016,5.2014,5.2028,5.2041,5.2041,5.2041,5.2041,0,5.0817,5.0876,5.101,5.1059,5.1129,5.1221,5.1287,5.1353,5.1437,5.1501,5.1571,5.1628,5.1729,5.1798,5.186,5.1939,5.1959,5.1996,5.2012,5.1991,5.1987,5.2022,5.2023,5.2042,5.2042,5.2042,5.2042,0,5.077,5.0862,5.0955,5.1084,5.1118,5.1164,5.1274,5.1324,5.1393,5.1473,5.1496,5.1603,5.169,5.1777,5.1891,5.1933,5.2011,5.2031,5.198,5.199,5.2007,5.2005,5.2045,5.2056,5.2059,5.2059,5.2059,0,5.0768,5.0816,5.0953,5.1003,5.1063,5.1141,5.1199,5.1292,5.1349,5.1464,5.1501,5.1594,5.1674,5.1808,5.1895,5.1985,5.2009,5.2017,5.2023,5.2002,5.2013,5.201,5.2017,5.2014,5.2014,5.2013,5.2013,0,5.0755,5.0801,5.0883,5.0983,5.1051,5.1133,5.1217,5.1253,5.1363,5.1423,5.1516,5.1578,5.1699,5.1791,5.1893,5.1953,5.2002,5.2011,5.2022,5.2001,5.1971,5.1991,5.1975,5.2009,5.201,5.201,5.201,5.201,5.0733,5.0782,5.0888,5.0979,5.1054,5.1132,5.1189,5.1268,5.1347,5.1457,5.1507,5.16,5.1698,5.184,5.19,5.1975,5.1987,5.2,5.2004,5.2007,5.2004,5.1959,5.1992,5.1993,5.1993,5.1993,5.1993,0,5.0727,5.0801,5.0884,5.1003,5.1075,5.112,5.1217,5.1273,5.1357,5.1445,5.1525,5.1633,5.1725,5.1821,5.1919,5.196,5.1985,5.1982,5.1981,5.1995,5.1985,5.1969,5.1961,5.1961,5.1961,5.1961,5.1961,5.1961,5.0732,5.082,5.0878,5.1004,5.1077,5.1174,5.1226,5.13,5.1372,5.1492,5.157,5.1634,5.1727,5.1833,5.192,5.1946,5.1979,5.1971,5.2003,5.1992,5.1995,5.1997,5.1982,5.1977,5.1977,5.2007,5.2008,5.2008]}]]